sat.trackr.live / text

‹ back to catalog

STARLINK-11726 [DTC]

NORAD 64067 · 2025-107D

PAYLOAD ACTIVE UNKNOWN

§ Identity

Operator
Country
US
Launch date
2025-05-21
Launch site
AFETR
Launch vehicle
Mass (kg)
RCS (m²)

Purposes: comms

External: N2YO · Heavens-Above · Gunter

§ Orbital elements

Epoch: 2026-09-20T08:15:07.621344Z

Period
91.66 min
Inclination
43.0003°
Eccentricity
0.0002720
Mean motion
15.70970754 rev/d
Perigee alt
354.3 km
Apogee alt
358.0 km
Semi-major
6,734.3 km
B*
1.2046e-3
RAAN
4.7873°
Arg perigee
268.5904°
Mean anomaly
91.4652°
Rev number
7,791

§ Raw data

STARLINK-11726 [DTC]1 64067U 25107D   26263.34383821  .00157973  00000+0  12046-2 0  99952 64067  43.0003   4.7873 0002720 268.5904  91.4652 15.70970754 77915

JSON: /api/v1/satellites/64067 · /tle

For live sub-satellite position, see the globe view (requires WebGL).

§ Visibility from observer

Set your observer location to see the next 7 days of passes ≥ 10°. The values pass through the URL so the page stays shareable.

No JS? Fill the form by hand. The geolocation button needs JavaScript.